Location: B�rgermoos
(47.6500°N, 9.0667°E)
Time: 17:38:50
(UTC+00:00)

Vanguard 1 - Pass Details

Date: 02 August 2021
Orbit: 652 x 3831 km, 34.3° (Epoch: 17 September)

Event Time Altitude Azimuth Distance (km) Brightness Sun altitude
Rises 08:55:18 0° 204° (SSW) 2,961 12.6 46.5°
Reaches altitude 10° 08:59:31 10° 164° (SSE) 2,214 12.5 47.1°
Maximum altitude 09:00:38 11° 150° (SSE) 2,240 12.7 47.3°
Drops below altitude 10° 09:01:49 10° 137° (SE) 2,378 13.0 47.4°
Sets 09:07:14 0° 101° (E) 3,863 13.7 48.2°
